Location: Spring Creek
(38.2870°N, 100.2160°W)
Time: 09:11:19
(UTC+00:00)

Meteor 1-27 Rocket - Pass Details

Date: 08 May 2021
Orbit: 829 x 910 km, 81.3° (Epoch: 21 June)

Event Time Altitude Azimuth Distance (km) Brightness Sun altitude
Exits shadow 05:14:49 67° 355° (N) 962 4.0 -31.3°
Drops below altitude 10° 05:19:53 10° 8° (N) 2,581 6.9 -31.7°
Sets 05:22:22 0° 9° (N) 3,533 7.8 -31.8°
